This demonstration page uses our WeatherBlox Daily Observations layout. Learn more.

Left ArrowRight Arrow

39.08367, -84.50855

Hourly Observations for January 20, 2015

Temp ( °F °C ) Dew Point ( °F °C ) Humidity (%) Winds ( mph kmh ) Pressure ( in mb ) Visibility ( mi km ) Precip ( " mm )
12:53 am 00:53 Partly Cloudy 31 -0.6 28 -2.2 89 89 Calm 29.94 1014 10 16.0934 0 0
1:53 am 01:53 Mostly Cloudy 30 -1.1 28 -2.2 92 92 Calm 29.93 1014 10 16.0934 0 0
2:53 am 02:53 Partly Cloudy 30 -1.1 28 -2.2 92 92 NNE 3 6 29.92 1013 10 16.0934 0 0
3:53 am 03:53 Cloudy 28 -2.2 26 -3.3 92 92 Calm 29.91 1013 10 16.0934 0 0
4:53 am 04:53 Cloudy 30 -1.1 28 -2.2 92 92 Calm 29.9 1013 10 16.0934 0 0
5:53 am 05:53 Cloudy 31 -0.6 28 -2.2 89 89 Calm 29.9 1012 10 16.0934 0 0
6:53 am 06:53 Cloudy 30 -1.1 29 -1.7 96 96 Calm 29.91 1013 10 16.0934 0 0
7:53 am 07:53 Cloudy 31 -0.6 29 -1.7 92 92 Calm 29.92 1013 10 16.0934 0 0
8:53 am 08:53 Mostly Cloudy 32 0 30 -1.1 92 92 Calm 29.92 1013 10 16.0934 0 0
9:53 am 09:53 Mostly Sunny 35 1.7 31 -0.6 85 85 Calm 29.94 1014 10 16.0934 0 0
10:53 am 10:53 Sunny 43 6.1 32 0 65 65 Calm 29.95 1014 10 16.0934 0 0
11:53 am 11:53 Sunny 46 7.8 32 0 58 58 Calm 29.94 1014 10 16.0934 0 0
12:53 pm 12:53 Sunny 50 10 32 0 50 50 Calm 29.91 1013 10 16.0934 0 0
1:53 pm 13:53 Sunny 51 10.6 30 -1.1 44 44 Calm 29.9 1012 10 16.0934 0 0
2:53 pm 14:53 Sunny 53 11.7 31 -0.6 43 43 NW 7 11 29.91 1013 10 16.0934 0 0
3:53 pm 15:53 Sunny 54 12.2 30 -1.1 40 40 WSW 3 6 29.91 1013 10 16.0934 0 0
4:53 pm 16:53 Sunny 50 10 30 -1.1 46 46 WSW 3 6 29.92 1013 10 16.0934 0 0
5:53 pm 17:53 Clear 44 6.7 28 -2.2 53 53 Calm 29.94 1014 10 16.0934 0 0
6:53 pm 18:53 Clear 38 3.3 31 -0.6 76 76 Calm 29.97 1015 10 16.0934 0 0
7:53 pm 19:53 Clear 37 2.8 30 -1.1 76 76 VRB 3 6 29.98 1015 10 16.0934 0 0
8:53 pm 20:53 Clear 35 1.7 30 -1.1 82 82 NE 6 9 29.98 1015 10 16.0934 0 0
9:53 pm 21:53 Mostly Clear 34 1.1 29 -1.7 82 82 Calm 29.98 1015 10 16.0934 0 0
10:53 pm 22:53 Clear 34 1.1 30 -1.1 85 85 Calm 29.98 1015 10 16.0934 0 0
11:53 pm 23:53 Clear 33 0.6 30 -1.1 89 89 Calm 29.98 1015 10 16.0934 0 0

Powered by AerisWeather